Regional Weather Roundup
Issued by NWS Lake Charles, LA

Current Version | Previous Version | Text Only | Print | Product List | Glossary On
Versions: 1 2 3 4 5 6 7 8 9 10 11 12 13 14 15 16 17 18 19 20 21 22 23 24 25 26 27 28
000
ASUS44 KLCH 292010
RWRLCH
REGIONAL WEATHER ROUNDUP
NATIONAL WEATHER SERVICE LAKE CHARLES LA
300 PM CDT WED MAR 29 2017

Note: "fair" indicates few or no clouds below 12,000 feet with no
significant weather and/or obstructions to visibility.


ACROSS SOUTHEAST TEXAS

CITY           SKY/WX    TMP DP  RH WIND       PRES   REMARKS
BEAUMONT       LGT RAIN  75  69  81 SE25G33   29.77F
BEAUMONT CITY  CLOUDY   N/A N/A N/A SE20G28   29.76F THUNDER
ORANGE         CLOUDY    77  70  79 SE18G29   29.80F
JASPER           N/A     73  70  89 SE6       29.79F
$$

ACROSS CENTRAL LOUISIANA

CITY           SKY/WX    TMP DP  RH WIND       PRES   REMARKS
LEESVILLE      MOSUNNY   79  60  52 SE12G17   29.80F
FULLERTON      FAIR      81  67  62 MISG      29.78F
ALEXANDRIA INT LGT RAIN  79  66  64 SE14      29.81F
ESLER FIELD    PTSUNNY   82  67  60 S12       29.85F
DERIDDER       MOCLDY    77  69  75 SE8       29.83F HAZE
OAKDALE        CLOUDY    80  67  65 SE10      29.83F
OPELOUSAS      MOCLDY    84  65  53 MISG      29.86F
$$

ACROSS SOUTHWEST AND SOUTH CENTRAL LOUISIANA

CITY           SKY/WX    TMP DP  RH WIND       PRES   REMARKS
SULPHUR        CLOUDY    80  68  67 SE25G31   29.82F
LAKE CHARLES   CLOUDY    81  68  64 SE28G38   29.80F
CHENNAULT INT  NOT AVBL
CAMERON PHI    PTCLDY    75  72  88 SE25G31   29.80F HAZE
DEQUINCY       MOCLDY    78  67  69 SE17      29.81F
JENNINGS       CLOUDY    79  67  67 SE16G28   29.84F
LAFAYETTE      PTSUNNY   82  67  60 S15G28    29.88F
NEW IBERIA     LGT RAIN  83  67  58 SE25G32   29.89F
ABBEVILLE      NOT AVBL
PATTERSON      PTSUNNY   81  68  64 S14G25    29.92F
SALT POINT       N/A     78  70  76 SE10G20   29.89F
$$

SELECTED SITES ACROSS THE REGION

CITY           SKY/WX    TMP DP  RH WIND       PRES   REMARKS
HOUSTON BUSH   CLOUDY    75  70  84 CALM      29.75F
HOUSTON HOBBY  LGT RAIN  70  69  97 CALM      29.74F
GALVESTON      CLOUDY    76  72  87 SE26G32   29.74F FOG
COLLEGE STAT   MOSUNNY   80  65  59 S10       29.75F
CONROE         CLOUDY    76  68  76 S12       29.76F
HUNTSVILLE     PTSUNNY   79  66  64 S16G25    29.76F
LUFKIN         CLOUDY    74  67  78 S9G20     29.77F
SHREVEPORT     CLOUDY    79  65  62 S9        29.75F
MONROE         PTSUNNY   82  61  48 S18G32    29.83F
NATCHEZ MS     NOT AVBL
BATON ROUGE    PTSUNNY   85  64  49 SE15G21   29.89F
N.O. INTL ARPT MOSUNNY   82  66  58 S15       29.93F
SLIDELL        PTSUNNY   83  64  52 S13       29.93F
$$

MARINE REPORTS

STATION/POSITION TIME  SKY/WX   TEMP    WIND        PRES    VSBY
                                AIR SEA DIR/SP/G
                 (UTC)          (F)     (DEG/KT/KT) (MB)    (MI)
BUOY 30 S HIGH I 1950            73 72  140/ 19/ 25 1007.4F
WVE H/P(F/S)=  7/ 9

SEA RIM ST PARK  2000            73     130/ 19/ 23 1008.5F
PORT ARTHUR      1948               74  150/ 19/ 25 1008.5F
SABINE PASS N    1948            74 78  130/ 23/ 27 1009.8F
TEXAS POINT      NOT AVBL
CALCASIEU PASS   1948            75 76  160/ 20/ 26   N/A
LK CHARLES BEACH 1948            79 72              1009.2F
MARSH ISLAND     1900            74                   N/A
FRESH WATER LOCK 1948            75 77  120/ 13/ 17 1011.5
AMERADA PASS     1948            77 67  140/ 10/ 17 1012.9F
$$




USA.gov is the U.S. government's official web portal to all federal, state and local government web resources and services.